Home > Weather > St Helens > Past weeks

Flag for United Kingdom Weather for the Past 2 Weeks in St Helens, England, United Kingdom

Now
41 °F

Clear.


Feels Like: 35 °F
Forecast: N/A
Wind: 9 mph from Southeast

Location: Liverpool Airport

Current Time: Feb 11, 2016 at 9:48:00 PM

Latest Report: Feb 11, 2016 at 8:50 PM


Visibility: 10 mi

Pressure: 29.50 "Hg

Humidity: 81%

Dew point: 36 °F

Location of St HelensLocation

Historic Weather in St Helens — Graph

°F

St Helens Temperature Yesterday

Maximum temperature yesterday: 46 °F (at 1:20 PM)
Minimum temperature yesterday: 39 °F (at 7:20 PM)
Average temperature yesterday: 42 °F

High & Low Weather Summary for the Past Weeks

 TemperatureHumidityPressure
High55 °F (Jan 29, 9:50 AM)100% (Jan 31, 8:20 AM)30.27 "Hg (Jan 31, 8:20 AM)
Low34 °F (Feb 11, 6:20 AM)57% (Feb 2, 1:50 AM)28.68 "Hg (Feb 8, 7:20 AM)
Average45 °F82%29.60 "Hg
* Reported Jan 27 8:20 PM — Feb 11 8:20 PM, St Helens, Weather by CustomWeather, © 2016

Note: Actual official high and low records may vary slightly from our data, if they occured in-between our weather recording intervals... More about our weather records

Advertising

St Helens Weather History for the Previous 24 Hours

 ConditionsComfort  
Time TempWeatherWind HumidityBarometerVisibility
8:20 PM
Thu, Feb 11
41 °FClear.6 mph81%29.50 "Hg10 mi
7:50 PM39 °FPassing clouds.5 mph87%29.50 "HgN/A
7:20 PM39 °FPassing clouds.6 mph93%29.53 "HgN/A
6:50 PM39 °FClear.5 mph93%29.53 "Hg10 mi
6:20 PM39 °FPassing clouds.5 mph93%29.53 "HgN/A
5:50 PM43 °FPassing clouds.5 mph87%29.53 "HgN/A
5:20 PM43 °FPassing clouds.5 mph87%29.53 "HgN/A
4:50 PM43 °FPassing clouds.5 mph87%29.53 "HgN/A
4:20 PM45 °FPassing clouds.6 mph81%29.56 "HgN/A
3:50 PM45 °FPassing clouds.3 mph81%29.56 "HgN/A
3:20 PM46 °FPassing clouds.6 mph76%29.56 "HgN/A
2:50 PM45 °FPassing clouds.3 mph81%29.56 "HgN/A
2:20 PM45 °FScattered clouds.2 mph76%29.56 "HgN/A
1:50 PM45 °FScattered clouds.2 mph76%29.56 "HgN/A
1:20 PM45 °FScattered clouds.2 mph76%29.59 "HgN/A
12:50 PM45 °FScattered clouds.3 mph76%29.59 "HgN/A
12:20 PM43 °FScattered clouds.2 mph87%29.59 "HgN/A
11:50 AM41 °FScattered clouds.5 mph87%29.59 "HgN/A
11:20 AM41 °FSunny.2 mph87%29.59 "Hg10 mi
10:50 AM39 °FSunny.3 mph93%29.59 "Hg10 mi
10:20 AM37 °FPassing clouds.5 mph93%29.59 "HgN/A
9:50 AM37 °FPassing clouds.2 mph93%29.62 "HgN/A
9:20 AM36 °FPassing clouds.5 mph93%29.62 "HgN/A
8:50 AM34 °FPassing clouds.3 mph100%29.62 "HgN/A
8:20 AM34 °FPassing clouds.5 mph100%29.59 "HgN/A
7:50 AM34 °FPassing clouds.5 mph100%29.59 "HgN/A
7:20 AM34 °FPassing clouds.5 mph100%29.59 "HgN/A
6:50 AM34 °FPassing clouds.5 mph100%29.59 "HgN/A
6:20 AM34 °FPassing clouds.3 mph100%29.59 "HgN/A
5:20 AM37 °FClear.3 mph93%29.59 "Hg10 mi
4:50 AM37 °FClear.2 mph93%29.59 "Hg10 mi
4:20 AM37 °FPassing clouds.6 mph93%29.59 "HgN/A
3:20 AM39 °FPassing clouds.5 mph93%29.62 "HgN/A
2:50 AM41 °FSprinkles. Passing clouds.3 mph93%29.62 "HgN/A
2:20 AM41 °FLight rain. Passing clouds.2 mph93%29.62 "HgN/A
1:50 AM41 °FLight rain. Passing clouds.3 mph93%29.62 "HgN/A
12:50 AM41 °FLight rain. Passing clouds.2 mph93%29.59 "HgN/A
12:20 AM41 °FScattered showers. Passing clouds.5 mph93%29.59 "HgN/A
11:50 PM
Wed, Feb 10
41 °FScattered showers. Passing clouds.5 mph93%29.59 "HgN/A
11:20 PM41 °FSprinkles. Passing clouds.7 mph93%29.59 "HgN/A
10:50 PM39 °FLight rain. Passing clouds.7 mph87%29.59 "Hg6 mi
10:20 PM39 °FPassing clouds.7 mph87%29.59 "HgN/A
9:50 PM39 °FPassing clouds.7 mph87%29.59 "HgN/A
9:20 PM39 °FPassing clouds.6 mph87%29.56 "HgN/A
Weather by CustomWeather, © 2016

See weather overviewHow to use our weather pages